DW4641 Weather Reports


Display with metric or nautical units.
time (UTC)temp
F
wind
direction
speed
MPH
gust
MPH
rain 1hr
in
rain 24hr
in
rain mn
in
humidity
%
barometer
mb
20170823172819 79 351 1.0 5.0 0.00 0.29 0.23 55 1008.3
20170823172318 79 288 0.0 4.0 0.00 0.29 0.23 55 1008.2
20170823171814 79 288 1.0 5.0 0.00 0.29 0.23 52 1008.3
20170823171314 79 281 1.0 5.0 0.00 0.29 0.23 52 1008.3
20170823170820 79 355 2.0 5.0 0.00 0.29 0.23 53 1008.3
20170823170336 79 211 1.0 4.0 0.00 0.29 0.23 54 1008.3
20170823165810 79 211 0.0 4.0 0.00 0.29 0.23 53 1008.1
20170823165307 78 211 1.0 4.0 0.00 0.29 0.23 52 1008.2
20170823164824 78 21 2.0 5.0 0.00 0.29 0.23 50 1008.1
20170823164323 78 5 2.0 9.0 0.00 0.29 0.23 51 1008.2
20170823163808 78 243 2.0 9.0 0.00 0.29 0.23 50 1008.1
20170823163325 78 264 3.0 7.0 0.00 0.29 0.23 50 1008.2
20170823162816 78 237 2.0 4.0 0.00 0.29 0.23 52 1008.2
20170823162321 78 323 2.0 6.0 0.00 0.29 0.23 57 1008.2
20170823161812 78 259 2.0 6.0 0.00 0.29 0.23 55 1008.4
20170823161313 78 355 2.0 5.0 0.00 0.29 0.23 56 1008.4
20170823160820 77 230 1.0 6.0 0.00 0.29 0.23 56 1008.4
20170823160337 77 230 1.0 6.0 0.00 0.29 0.23 57 1008.4
20170823155808 77 222 2.0 5.0 0.00 0.29 0.23 59 1008.5
20170823155308 78 309 1.0 5.0 0.00 0.29 0.23 61 1008.5
20170823154824 78 348 2.0 5.0 0.00 0.29 0.23 60 1008.6
20170823154322 77 79 1.0 4.0 0.00 0.29 0.23 60 1008.5
20170823153823 77 259 1.0 8.0 0.00 0.29 0.23 62 1008.5
20170823153324 78 250 2.0 8.0 0.00 0.29 0.23 62 1008.5
20170823152823 78 301 1.0 6.0 0.00 0.29 0.23 62 1008.5
20170823152318 78 71 1.0 5.0 0.00 0.29 0.23 62 1008.4
20170823151817 78 39 1.0 8.0 0.00 0.29 0.23 61 1008.4
20170823151317 78 33 2.0 8.0 0.00 0.29 0.23 63 1008.3
20170823150816 78 349 2.0 6.0 0.00 0.29 0.23 64 1008.2
20170823150324 78 100 2.0 8.0 0.00 0.29 0.23 66 1008.2
20170823145811 78 48 2.0 8.0 0.00 0.29 0.23 66 1008.2
20170823145321 78 56 3.0 6.0 0.00 0.29 0.23 66 1008.2
20170823144821 78 30 2.0 8.0 0.00 0.29 0.23 68 1008.1
20170823144321 78 27 2.0 8.0 0.00 0.29 0.23 70 1008.1
20170823143814 78 44 2.0 5.0 0.00 0.29 0.23 72 1008.0
20170823143310 77 23 2.0 5.0 0.00 0.29 0.23 72 1008.0
20170823142810 78 338 1.0 6.0 0.00 0.29 0.23 73 1008.0
20170823142309 77 24 3.0 6.0 0.00 0.29 0.23 73 1008.0
20170823141824 77 243 1.0 5.0 0.00 0.29 0.23 75 1007.9
20170823141313 77 18 0.0 3.0 0.00 0.29 0.23 79 1007.8
20170823140819 77 18 1.0 3.0 0.00 0.29 0.23 78 1007.9
20170823140358 76 24 1.0 5.0 0.00 0.29 0.23 78 1007.9
20170823135810 76 9 2.0 7.0 0.00 0.29 0.23 79 1007.9
20170823135310 75 246 2.0 7.0 0.00 0.29 0.23 80 1007.7
20170823134824 75 267 2.0 6.0 0.00 0.29 0.23 80 1007.7
20170823134322 74 230 0.0 2.0 0.00 0.29 0.23 84 1007.7
20170823133817 74 230 0.0 2.0 0.00 0.29 0.23 84 1007.5
20170823133318 74 232 0.0 2.0 0.00 0.29 0.23 84 1007.5
20170823132818 74 232 1.0 3.0 0.00 0.29 0.23 84 1007.5
20170823132314 74 234 0.0 4.0 0.00 0.29 0.23 85 1007.4
20170823131815 74 234 0.0 4.0 0.00 0.29 0.23 85 1007.4
20170823131316 74 234 1.0 4.0 0.00 0.29 0.23 85 1007.3
20170823130808 74 234 0.0 4.0 0.00 0.29 0.23 86 1007.1
20170823130324 74 221 1.0 3.0 0.00 0.29 0.23 86 1007.1
20170823125810 74 244 0.0 2.0 0.00 0.29 0.23 88 1007.1
20170823125309 74 244 0.0 2.0 0.00 0.29 0.23 88 1007.1
20170823124806 73 244 0.0 3.0 0.00 0.29 0.23 89 1007.0
20170823124325 73 244 0.0 3.0 0.00 0.29 0.23 89 1006.9
20170823123815 73 244 0.0 3.0 0.00 0.29 0.23 90 1007.0
20170823123315 73 260 0.0 2.0 0.00 0.29 0.23 91 1007.0
20170823122815 73 260 0.0 0.0 0.00 0.29 0.23 92 1006.9
20170823122314 73 260 0.0 0.0 0.00 0.29 0.23 92 1006.9
20170823121811 73 260 0.0 0.0 0.00 0.29 0.23 92 1006.8
20170823121312 73 260 0.0 2.0 0.00 0.29 0.23 93 1006.7
20170823120819 73 260 1.0 2.0 0.00 0.29 0.23 93 1006.7
20170823120337 73 260 0.0 2.0 0.00 0.29 0.23 93 1006.6
20170823115808 72 260 0.0 3.0 0.00 0.29 0.23 94 1006.5
20170823115309 72 260 1.0 4.0 0.00 0.29 0.23 94 1006.5
20170823114824 72 231 1.0 4.0 0.00 0.29 0.23 94 1006.5
20170823114323 72 192 1.0 2.0 0.00 0.29 0.23 94 1006.5
20170823113818 72 189 0.0 2.0 0.00 0.29 0.23 94 1006.5
20170823113318 72 184 0.0 1.0 0.00 0.29 0.23 94 1006.3
20170823112817 72 184 0.0 1.0 0.00 0.29 0.23 94 1006.4
20170823112318 72 184 0.0 2.0 0.00 0.29 0.23 94 1006.4
20170823111813 72 184 0.0 2.0 0.00 0.29 0.23 95 1006.4
20170823111313 72 184 0.0 2.0 0.00 0.29 0.23 95 1006.3
20170823110808 72 184 1.0 2.0 0.00 0.29 0.23 95 1006.4
20170823110336 72 184 0.0 2.0 0.00 0.29 0.23 95 1006.3
20170823105806 72 184 0.0 1.0 0.00 0.29 0.23 95 1006.2
20170823105306 72 184 0.0 1.0 0.00 0.29 0.23 95 1006.2
20170823104821 72 184 0.0 3.0 0.00 0.29 0.23 95 1006.1
20170823104322 72 184 0.0 3.0 0.00 0.29 0.23 95 1006.1
20170823103819 72 184 1.0 2.0 0.00 0.29 0.23 94 1006.0
20170823103319 72 184 0.0 2.0 0.00 0.29 0.23 94 1006.0
20170823102817 72 184 0.0 2.0 0.00 0.29 0.23 94 1005.9
20170823102317 72 184 0.0 1.0 0.00 0.29 0.23 94 1005.9
20170823101813 72 184 0.0 7.0 0.00 0.29 0.23 94 1005.9
20170823101313 72 184 3.0 7.0 0.00 0.29 0.23 94 1005.9
20170823100805 72 239 0.0 0.0 0.00 0.29 0.23 94 1005.9
20170823100324 72 239 0.0 2.0 0.00 0.29 0.23 94 1005.8
20170823095814 72 244 0.0 2.0 0.00 0.29 0.23 94 1005.8
20170823095310 72 244 0.0 2.0 0.00 0.29 0.23 94 1005.8
20170823094810 72 244 1.0 2.0 0.00 0.29 0.23 94 1005.7
20170823094311 72 244 1.0 2.0 0.00 0.29 0.23 94 1005.6
20170823093821 72 244 1.0 2.0 0.00 0.29 0.23 94 1005.6
20170823093321 72 244 1.0 2.0 0.00 0.29 0.23 94 1005.7
20170823092823 72 244 0.0 2.0 0.00 0.29 0.23 94 1005.8
20170823092317 72 244 0.0 2.0 0.00 0.29 0.23 94 1005.8
20170823091811 72 240 1.0 2.0 0.00 0.29 0.23 94 1005.8
20170823091312 72 228 0.0 2.0 0.00 0.29 0.23 94 1005.8
20170823090815 72 228 0.0 2.0 0.00 0.29 0.23 95 1005.8
20170823090312 72 228 0.0 5.0 0.00 0.29 0.23 95 1005.7
20170823085807 72 228 1.0 5.0 0.00 0.29 0.23 95 1005.6
20170823085306 72 206 1.0 3.0 0.00 0.29 0.23 94 1005.7
20170823084821 72 215 0.0 2.0 0.00 0.29 0.23 94 1005.7
20170823084322 72 215 1.0 3.0 0.00 0.29 0.23 94 1005.6
20170823083821 72 214 0.0 3.0 0.00 0.29 0.23 94 1005.6
20170823083321 72 192 1.0 3.0 0.00 0.29 0.23 94 1005.7
20170823082821 72 192 1.0 3.0 0.00 0.29 0.23 94 1005.6
20170823082316 72 192 1.0 4.0 0.00 0.29 0.23 94 1005.4
20170823081816 72 223 0.0 2.0 0.00 0.29 0.23 94 1005.5
20170823081317 72 223 0.0 2.0 0.00 0.29 0.23 94 1005.5
20170823080820 72 223 0.0 2.0 0.00 0.29 0.23 94 1005.6
20170823080321 72 223 0.0 2.0 0.00 0.29 0.23 94 1005.6
20170823075814 72 223 1.0 3.0 0.00 0.29 0.23 94 1005.6
20170823075311 72 223 1.0 3.0 0.00 0.29 0.23 94 1005.8
20170823074822 72 206 1.0 3.0 0.00 0.29 0.23 94 1005.6
20170823074323 72 201 1.0 3.0 0.00 0.29 0.23 94 1005.6
20170823073818 72 242 1.0 5.0 0.00 0.29 0.23 94 1005.6
20170823073319 72 180 3.0 6.0 0.00 0.29 0.23 94 1005.6
20170823072819 72 175 2.0 5.0 0.00 0.29 0.23 94 1005.4
20170823072316 72 175 1.0 3.0 0.00 0.29 0.23 93 1005.6
20170823071815 72 232 1.0 3.0 0.00 0.29 0.23 93 1005.5
20170823071315 72 196 0.0 3.0 0.00 0.29 0.23 93 1005.5
20170823070822 72 196 1.0 3.0 0.00 0.29 0.23 93 1005.6
20170823070338 72 196 1.0 5.0 0.00 0.29 0.23 93 1005.5
20170823065807 72 210 1.0 3.0 0.00 0.29 0.23 93 1005.5
20170823065306 72 210 1.0 5.0 0.00 0.29 0.23 93 1005.4
20170823064821 72 190 2.0 5.0 0.00 0.29 0.23 93 1005.5
20170823064322 72 238 1.0 4.0 0.01 0.29 0.23 94 1005.6
20170823063814 72 239 1.0 3.0 0.01 0.29 0.23 94 1005.6
20170823063314 72 244 1.0 5.0 0.01 0.29 0.23 94 1005.7
20170823062815 72 244 2.0 5.0 0.02 0.29 0.23 94 1005.6
20170823062315 72 199 1.0 2.0 0.03 0.29 0.23 93 1005.6
20170823061812 72 199 1.0 3.0 0.03 0.29 0.23 93 1005.4
20170823061312 72 199 1.0 6.0 0.04 0.29 0.23 93 1005.5
20170823060810 72 199 1.0 6.0 0.05 0.29 0.23 93 1005.5
20170823060328 72 204 3.0 5.0 0.07 0.29 0.23 93 1005.5
20170823055822 72 177 2.0 5.0 0.07 0.29 0.23 93 1005.8
20170823055319 72 170 2.0 6.0 0.09 0.29 0.23 93 1006.1
20170823054820 72 184 1.0 6.0 0.11 0.29 0.23 93 1006.0
20170823054321 72 194 2.0 8.0 0.11 0.28 0.22 93 1006.3
20170823053814 72 182 3.0 8.0 0.13 0.28 0.22 93 1006.3
20170823053314 72 224 2.0 9.0 0.15 0.27 0.21 93 1006.4
20170823052816 72 202 1.0 9.0 0.16 0.27 0.21 93 1006.4
20170823052316 72 206 2.0 7.0 0.16 0.26 0.20 93 1006.5
20170823051812 72 265 2.0 8.0 0.18 0.26 0.20 93 1006.7
20170823051312 72 180 3.0 6.0 0.18 0.25 0.19 93 1006.6
20170823050816 72 173 2.0 7.0 0.17 0.24 0.18 92 1006.7
20170823050332 73 185 3.0 7.0 0.16 0.22 0.16 92 1006.6
20170823045824 73 267 2.0 7.0 0.16 0.22 0.16 92 1006.8
20170823045305 73 184 2.0 8.0 0.14 0.20 0.14 91 1006.8
20170823044821 73 189 3.0 11.0 0.12 0.18 0.12 90 1006.7
20170823044321 74 225 6.0 11.0 0.12 0.17 0.11 90 1006.8
20170823043817 74 257 4.0 11.0 0.12 0.15 0.09 90 1006.9
20170823043315 75 202 5.0 14.0 0.10 0.12 0.06 90 1006.9
20170823042818 75 183 7.0 16.0 0.11 0.11 0.05 90 1006.8
20170823042314 75 221 9.0 20.0 0.09 0.09 0.04 90 1006.7
20170823041814 75 240 7.0 16.0 0.08 0.08 0.02 90 1006.5
20170823041315 75 227 7.0 16.0 0.07 0.07 0.01 89 1006.3
20170823040821 75 190 7.0 16.0 0.07 0.07 0.01 90 1006.2
20170823040339 76 229 3.0 14.0 0.06 0.06 0.00 91 1006.0
20170823035806 76 202 2.0 11.0 0.06 0.06 0.06 92 1006.0
20170823035306 76 186 4.0 11.0 0.06 0.06 0.06 91 1006.0
20170823034824 76 202 4.0 10.0 0.06 0.06 0.06 91 1006.1
20170823034322 76 235 4.0 10.0 0.04 0.04 0.04 90 1006.2
20170823033818 76 188 4.0 10.0 0.03 0.03 0.03 90 1006.1
20170823033318 76 184 4.0 12.0 0.01 0.01 0.01 89 1006.1
20170823032819 77 194 4.0 11.0 0.00 0.00 0.00 87 1006.1
20170823032317 77 215 5.0 11.0 0.00 0.00 0.00 86 1006.1
20170823031815 77 237 7.0 12.0 0.00 0.00 0.00 85 1006.0
20170823031314 77 190 4.0 14.0 0.00 0.00 0.00 85 1005.9
20170823030821 77 248 6.0 14.0 0.00 0.00 0.00 85 1005.9
20170823030318 77 228 5.0 11.0 0.00 0.00 0.00 85 1005.8
20170823025824 77 240 5.0 10.0 0.00 0.00 0.00 85 1005.8
20170823025320 77 211 5.0 12.0 0.00 0.00 0.00 85 1005.9
20170823024821 77 246 5.0 12.0 0.00 0.00 0.00 85 1005.8
20170823024322 77 167 4.0 9.0 0.00 0.00 0.00 85 1005.9
20170823023818 77 180 4.0 9.0 0.00 0.00 0.00 85 1005.8
20170823023319 77 235 4.0 9.0 0.00 0.00 0.00 85 1005.8
20170823022821 77 227 5.0 8.0 0.00 0.00 0.00 85 1005.8
20170823022318 77 205 3.0 8.0 0.00 0.00 0.00 85 1005.9
20170823021816 77 260 3.0 7.0 0.00 0.00 0.00 85 1006.0
20170823021316 77 173 3.0 8.0 0.00 0.00 0.00 85 1006.0
20170823020817 77 221 3.0 8.0 0.00 0.00 0.00 85 1006.2
20170823020335 77 198 4.0 14.0 0.00 0.00 0.00 85 1006.3
20170823015806 77 211 4.0 10.0 0.00 0.00 0.00 85 1006.4
20170823015306 77 186 6.0 10.0 0.00 0.00 0.00 85 1006.5
20170823014820 77 261 5.0 9.0 0.00 0.00 0.00 85 1006.4
20170823014321 77 207 2.0 9.0 0.00 0.00 0.00 85 1006.4
20170823013818 77 185 3.0 8.0 0.00 0.00 0.00 85 1006.3
20170823013317 77 165 4.0 9.0 0.00 0.00 0.00 85 1006.2
20170823012818 77 194 4.0 7.0 0.00 0.00 0.00 85 1006.3
20170823012314 77 172 1.0 12.0 0.00 0.00 0.00 85 1006.3
20170823011814 77 215 5.0 12.0 0.00 0.00 0.00 85 1006.5
20170823011314 77 193 2.0 7.0 0.00 0.00 0.00 85 1006.5
20170823010812 78 230 5.0 11.0 0.00 0.00 0.00 85 1006.6
20170823010330 78 198 4.0 11.0 0.00 0.00 0.00 85 1006.5
20170823005814 78 182 4.0 10.0 0.00 0.00 0.00 85 1006.6
20170823005311 78 186 4.0 11.0 0.00 0.00 0.00 85 1006.6
20170823004809 78 173 3.0 7.0 0.00 0.00 0.00 85 1006.7
20170823004321 78 224 3.0 8.0 0.00 0.00 0.00 85 1006.7
20170823003820 78 175 2.0 8.0 0.00 0.00 0.00 84 1006.8
20170823003319 78 221 4.0 7.0 0.00 0.00 0.00 84 1006.8
20170823002820 78 186 4.0 8.0 0.00 0.00 0.00 84 1006.9
20170823002316 78 239 4.0 7.0 0.00 0.00 0.00 84 1006.8
20170823001816 78 185 3.0 10.0 0.00 0.00 0.00 84 1006.9
20170823001316 79 194 5.0 11.0 0.00 0.00 0.00 84 1006.9
20170823000819 79 212 4.0 11.0 0.00 0.00 0.00 84 1006.9
20170823000317 79 196 4.0 10.0 0.00 0.00 0.00 84 1007.0
20170822235819 79 222 4.0 9.0 0.00 0.00 0.00 84 1007.2
20170822235313 79 234 6.0 9.0 0.00 0.00 0.00 84 1007.2
20170822234812 79 207 3.0 9.0 0.00 0.00 0.00 84 1007.3
20170822234323 79 237 4.0 9.0 0.00 0.00 0.00 83 1007.4
20170822233818 79 182 5.0 10.0 0.00 0.00 0.00 83 1007.3
20170822233317 79 207 4.0 11.0 0.00 0.00 0.00 83 1007.3
20170822232818 79 183 3.0 11.0 0.00 0.00 0.00 83 1007.4
20170822232318 80 230 6.0 11.0 0.00 0.00 0.00 83 1007.4
20170822231813 80 177 5.0 10.0 0.00 0.00 0.00 82 1007.4
20170822231312 80 190 4.0 9.0 0.00 0.00 0.00 82 1007.4
20170822230824 80 207 4.0 9.0 0.00 0.00 0.00 82 1007.3
20170822230342 80 208 4.0 12.0 0.00 0.00 0.00 82 1007.2
20170822225805 80 212 7.0 12.0 0.00 0.00 0.00 82 1007.3
20170822225304 80 181 3.0 11.0 0.00 0.00 0.00 81 1007.3
20170822224822 81 180 3.0 10.0 0.00 0.00 0.00 81 1007.3
20170822224321 81 210 3.0 10.0 0.00 0.00 0.00 81 1007.3
20170822223821 81 220 4.0 10.0 0.00 0.00 0.00 81 1007.4
20170822223320 81 191 4.0 11.0 0.00 0.00 0.00 80 1007.4
20170822222822 81 186 4.0 12.0 0.00 0.00 0.00 80 1007.5
20170822222316 82 189 4.0 8.0 0.00 0.00 0.00 79 1007.5
20170822221816 82 195 4.0 11.0 0.00 0.00 0.00 79 1007.4
20170822221315 82 205 4.0 12.0 0.00 0.00 0.00 78 1007.5
20170822220809 82 204 4.0 12.0 0.00 0.00 0.00 78 1007.6
20170822220329 83 204 4.0 9.0 0.00 0.00 0.00 77 1007.7
20170822215805 83 219 4.0 9.0 0.00 0.00 0.00 77 1007.9
20170822215320 83 207 3.0 12.0 0.00 0.00 0.00 77 1008.0
20170822214820 84 207 6.0 12.0 0.00 0.00 0.00 76 1008.1
20170822214320 84 204 4.0 11.0 0.00 0.00 0.00 76 1008.1
20170822213815 84 222 4.0 11.0 0.00 0.00 0.00 76 1008.3
20170822213315 84 238 5.0 12.0 0.00 0.00 0.00 76 1008.2
20170822212816 84 263 5.0 12.0 0.00 0.00 0.00 76 1008.3
20170822212316 84 179 7.0 12.0 0.00 0.00 0.00 75 1008.4
20170822211813 84 195 6.0 14.0 0.00 0.00 0.00 75 1008.5
20170822211312 85 213 5.0 14.0 0.00 0.00 0.00 75 1008.6
20170822210823 85 182 5.0 10.0 0.00 0.00 0.00 74 1008.5
20170822210338 85 202 4.0 9.0 0.00 0.00 0.00 75 1008.6
20170822205807 85 220 4.0 13.0 0.00 0.00 0.00 74 1008.7
20170822205307 85 175 5.0 10.0 0.00 0.00 0.00 75 1008.7
20170822204822 85 177 5.0 9.0 0.00 0.00 0.00 75 1008.8
20170822204321 85 237 5.0 11.0 0.00 0.00 0.00 75 1008.8
20170822203820 85 173 5.0 13.0 0.00 0.00 0.00 75 1008.9
20170822203320 85 203 7.0 13.0 0.00 0.00 0.00 74 1008.8
20170822202821 85 246 6.0 13.0 0.00 0.00 0.00 74 1008.8
20170822202318 85 240 3.0 13.0 0.00 0.00 0.00 75 1008.9
20170822201817 85 161 6.0 12.0 0.00 0.00 0.00 74 1008.9
20170822201318 86 252 6.0 13.0 0.00 0.00 0.00 73 1009.0
20170822200815 86 242 3.0 13.0 0.00 0.00 0.00 72 1009.1
20170822200317 86 190 4.0 12.0 0.00 0.00 0.00 72 1009.3
20170822195812 86 223 3.0 10.0 0.00 0.00 0.00 72 1009.3
20170822195309 86 229 5.0 9.0 0.00 0.00 0.00 72 1009.4
20170822194810 86 169 4.0 8.0 0.00 0.00 0.00 73 1009.6
20170822194310 86 210 4.0 10.0 0.00 0.00 0.00 73 1009.5
20170822193823 86 189 4.0 11.0 0.00 0.00 0.00 73 1009.7
20170822193323 86 229 5.0 10.0 0.00 0.00 0.00 72 1009.7
20170822192805 86 218 4.0 10.0 0.00 0.00 0.00 73 1009.8
20170822192315 86 196 4.0 12.0 0.00 0.00 0.00 73 1009.9
20170822191815 86 234 4.0 7.0 0.00 0.00 0.00 72 1010.0
20170822191314 86 223 2.0 12.0 0.00 0.00 0.00 73 1010.1
20170822190818 86 227 5.0 12.0 0.00 0.00 0.00 72 1010.3
20170822190356 86 190 4.0 9.0 0.00 0.00 0.00 71 1010.5
20170822185819 86 360 2.0 5.0 0.00 0.00 0.00 70 1010.5
20170822185314 86 200 1.0 10.0 0.00 0.00 0.00 69 1010.6
20170822184822 86 263 5.0 10.0 0.00 0.00 0.00 69 1010.6
20170822184322 86 227 3.0 8.0 0.00 0.00 0.00 69 1010.8
20170822183814 86 201 4.0 9.0 0.00 0.00 0.00 69 1010.9
20170822183314 86 206 4.0 9.0 0.00 0.00 0.00 69 1010.9
20170822182815 86 225 2.0 7.0 0.00 0.00 0.00 71 1010.9
20170822182315 86 188 3.0 7.0 0.00 0.00 0.00 70 1011.0
20170822181811 85 190 3.0 9.0 0.00 0.00 0.00 72 1011.2
20170822181312 85 182 4.0 9.0 0.00 0.00 0.00 70 1011.3
20170822180811 85 194 4.0 9.0 0.00 0.00 0.00 72 1011.6
20170822180327 85 227 4.0 8.0 0.00 0.00 0.00 73 1011.7
20170822175806 85 173 3.0 6.0 0.00 0.00 0.00 72 1011.8
20170822175305 84 222 2.0 6.0 0.00 0.00 0.00 74 1011.9
20170822174821 84 198 2.0 9.0 0.00 0.00 0.00 74 1011.9
20170822174321 84 191 4.0 9.0 0.00 0.00 0.00 74 1012.1
20170822173807 84 187 4.0 8.0 0.00 0.00 0.00 74 1012.1
20170822173306 83 172 4.0 8.0 0.00 0.00 0.00 74 1012.2